Location: *
(43.9905°S, 176.4941°W)
Time: 20:07:53
(UTC+00:00)

Cosmos 2263 - Pass Details

Date: 08 December 2019
Orbit: 829 x 868 km, 70.9° (Epoch: 18 January)

Event Time Altitude Azimuth Distance (km) Brightness Sun altitude
Exits shadow 10:45:41 36° 327° (NNW) 1,333 4.9 -22.2°
Maximum altitude 10:48:09 80° 245° (WSW) 877 4.2 -22.3°
Drops below altitude 10° 10:53:54 10° 157° (SSE) 2,493 7.4 -22.5°
Sets 10:56:21 0° 155° (SSE) 3,429 8.2 -22.6°
